This is the latest recevied weather packets stored in our database for station/object WA6ODQ-13. If no packets are shown the sender has not sent any weather packets the latest 10 day(s).
| Time | Temp. | Humidity | Pressure | Rain* | Wind** | Luminosity | Snow |
|---|---|---|---|---|---|---|---|
| 1778040250 | 15.56° C | 79% | 1014.6 hPa | 0 mm | - | 0 W/m² | - |
| 1778039945 | 15.56° C | 79% | 1014.5 hPa | 0 mm | - | 0 W/m² | - |
| 1778039643 | 15.56° C | 79% | 1014.5 hPa | 0 mm | - | 0 W/m² | - |
| 1778039340 | 15.56° C | 78% | 1014.3 hPa | 0 mm | - | 0 W/m² | - |
| 1778039037 | 15.56° C | 78% | 1014.4 hPa | 0 mm | - | 0 W/m² | - |
| 1778038734 | 15.56° C | 79% | 1014.4 hPa | 0 mm | - | 0 W/m² | - |
| 1778038431 | 16.11° C | 78% | 1014.1 hPa | 0 mm | - | 0 W/m² | - |
| 1778038128 | 16.11° C | 78% | 1014.2 hPa | 0 mm | - | 0 W/m² | - |
| 1778037825 | 16.11° C | 78% | 1014.2 hPa | 0 mm | - | 0 W/m² | - |
| 1778037522 | 16.11° C | 78% | 1014.1 hPa | 0 mm | - | 0 W/m² | - |
| 1778037219 | 16.11° C | 78% | 1014.1 hPa | 0 mm | - | 0 W/m² | - |
| 1778036916 | 16.11° C | 78% | 1014 hPa | 0 mm | - | 1 W/m² | - |
| 1778036615 | 16.11° C | 78% | 1014.2 hPa | 0 mm | - | 2 W/m² | - |
| 1778036311 | 16.11° C | 78% | 1013.9 hPa | 0 mm | - | 3 W/m² | - |
| 1778036007 | 16.11° C | 78% | 1013.8 hPa | 0 mm | - | 4 W/m² | - |
| 1778035705 | 16.11° C | 78% | 1014 hPa | 0 mm | - | 6 W/m² | - |
| 1778035401 | 16.67° C | 79% | 1013.6 hPa | 0 mm | - | 9 W/m² | - |
| 1778035097 | 16.67° C | 78% | 1013.8 hPa | 0 mm | - | 11 W/m² | - |
| 1778034795 | 16.67° C | 78% | 1013.9 hPa | 0 mm | - | 14 W/m² | - |
| 1778034491 | 16.67° C | 78% | 1013.7 hPa | 0 mm | - | 18 W/m² | - |
| 1778034189 | 16.67° C | 78% | 1013.7 hPa | 0 mm | - | 26 W/m² | - |
| 1778033887 | 16.67° C | 78% | 1013.4 hPa | 0 mm | - | 30 W/m² | - |
| 1778033583 | 16.67° C | 78% | 1013.3 hPa | 0 mm | - | 37 W/m² | - |
| 1778033280 | 16.67° C | 77% | 1013.3 hPa | 0 mm | - | 45 W/m² | - |
| 1778032978 | 17.22° C | 77% | 1013.4 hPa | 0 mm | - | 46 W/m² | - |
* Rain latest hour (hover to see other rain measurements)
** Current wind speed in m/s (hover to see current wind gust speed)